Torna al catalogo

PSLV R/B

AttivoSSO
NORAD 28651·ROCKET BODY·🇮🇳 India

Lanciato May 5, 2005 da Satish Dhawan Space Centre

Loading…

Prossimi Passaggi (prossime 24 ore)

TLE

AggiornatoSource: Space-Track

Epoca: Sep 14, 2026, 07:08 UTC

1 28651U 05017C   26257.29776447  .00000711  00000-0  99103-4 0  9998
2 28651  97.8554 158.7984 0067093  17.4002 342.9487 14.79322760148228

Traccia PSLV R/B in tempo reale con AllMySat

Download on the App Store